Time,TemperatureF,DewpointF,PressureIn,WindDirection,WindDirectionDegrees,WindSpeedMPH,WindSpeedGustMPH,Humidity,HourlyPrecipIn,Conditions,Clouds,dailyrainin,SoftwareType,DateUTC
2013-07-18 00:01:00,79.0,43.0,-100.00,WNW,303,18.0,25.0,27,-99.99,,,-99.99,,2013-07-18 07:01:00,
2013-07-18 00:11:00,79.0,43.0,-100.00,WNW,303,18.0,25.0,27,-99.99,,,-99.99,,2013-07-18 07:11:00,
2013-07-18 04:01:00,73.0,40.0,-100.00,WNW,285,14.0,20.0,30,-99.99,,,-99.99,,2013-07-18 11:01:00,
2013-07-18 04:11:00,73.0,40.0,-100.00,WNW,285,14.0,20.0,30,-99.99,,,-99.99,,2013-07-18 11:11:00,
2013-07-18 06:01:00,71.0,40.0,-100.00,WNW,290,13.0,18.0,32,-99.99,,,-99.99,,2013-07-18 13:01:00,
2013-07-18 07:11:00,68.0,42.0,-100.00,WNW,289,3.0,5.0,38,-99.99,,,-99.99,,2013-07-18 14:11:00,
2013-07-18 08:11:00,73.0,40.0,-100.00,West,273,3.0,6.0,30,-99.99,,,-99.99,,2013-07-18 15:11:00,
2013-07-18 09:01:00,79.0,45.0,-100.00,North,353,3.0,6.0,30,-99.99,,,-99.99,,2013-07-18 16:01:00,
2013-07-18 09:11:00,79.0,45.0,-100.00,North,353,3.0,6.0,30,-99.99,,,-99.99,,2013-07-18 16:11:00,
2013-07-18 10:02:00,81.0,48.0,-100.00,East,96,3.0,8.0,31,-99.99,,,-99.99,,2013-07-18 17:02:00,
2013-07-18 10:11:00,81.0,48.0,-100.00,East,96,3.0,8.0,31,-99.99,,,-99.99,,2013-07-18 17:11:00,
2013-07-18 11:11:00,84.0,50.0,-100.00,North,3,3.0,13.0,30,-99.99,,,-99.99,,2013-07-18 18:11:00,
2013-07-18 13:01:00,89.0,49.0,-100.00,ENE,71,3.0,7.0,25,-99.99,,,-99.99,,2013-07-18 20:01:00,
2013-07-18 13:11:00,89.0,49.0,-100.00,ENE,71,3.0,7.0,25,-99.99,,,-99.99,,2013-07-18 20:11:00,
2013-07-18 14:01:00,91.0,48.0,-100.00,West,259,3.0,9.0,22,-99.99,,,-99.99,,2013-07-18 21:01:00,
2013-07-18 14:11:00,91.0,48.0,-100.00,West,259,3.0,9.0,22,-99.99,,,-99.99,,2013-07-18 21:11:00,
2013-07-18 15:01:00,93.0,43.0,-100.00,SSW,193,3.0,10.0,17,-99.99,,,-99.99,,2013-07-18 22:01:00,
2013-07-18 15:11:00,93.0,43.0,-100.00,SSW,193,3.0,10.0,17,-99.99,,,-99.99,,2013-07-18 22:11:00,
2013-07-18 16:02:00,94.0,42.0,-100.00,ESE,120,5.0,12.0,16,-99.99,,,-99.99,,2013-07-18 23:02:00,
2013-07-18 16:11:00,94.0,42.0,-100.00,ESE,120,5.0,12.0,16,-99.99,,,-99.99,,2013-07-18 23:11:00,
2013-07-18 17:11:00,97.0,41.0,-100.00,ESE,107,5.0,10.0,14,-99.99,,,-99.99,,2013-07-19 00:11:00,
2013-07-18 19:01:00,97.0,40.0,-100.00,ENE,62,5.0,8.0,14,-99.99,,,-99.99,,2013-07-19 02:01:00,
2013-07-18 19:11:00,97.0,40.0,-100.00,ENE,62,5.0,8.0,14,-99.99,,,-99.99,,2013-07-19 02:11:00,
2013-07-18 20:11:00,96.0,43.0,-100.00,NE,38,6.0,10.0,16,-99.99,,,-99.99,,2013-07-19 03:11:00,
2013-07-18 21:02:00,93.0,47.0,-100.00,ESE,116,6.0,7.0,20,-99.99,,,-99.99,,2013-07-19 04:02:00,
2013-07-18 21:12:00,93.0,47.0,-100.00,ESE,116,6.0,7.0,20,-99.99,,,-99.99,,2013-07-19 04:12:00,
2013-07-18 22:02:00,88.0,50.0,-100.00,South,180,8.0,12.0,27,-99.99,,,-99.99,,2013-07-19 05:02:00,
2013-07-18 22:11:00,88.0,50.0,-100.00,South,180,8.0,12.0,27,-99.99,,,-99.99,,2013-07-19 05:11:00,
2013-07-18 23:01:00,82.0,49.0,-100.00,SW,218,7.0,8.0,31,-99.99,,,-99.99,,2013-07-19 06:01:00,
2013-07-18 23:11:00,82.0,49.0,-100.00,SW,218,7.0,8.0,31,-99.99,,,-99.99,,2013-07-19 06:11:00,